Showing default

LEMUR-2 POLO-11, 68493

Orbit data source: Space-Track

LEMUR-2 POLO-11, 68493 is a Luxembourger payload satellite in SSO that was launched on Mon, 30 Mar 2026 UTC via an FALCON 9 launch vehicle from the Air Force Western Test Range (AFWTR). Payload-class satellites include a variety of spacecraft equipped with specific instruments for various scientific and technological missions. These include communications satellites like Starlink; space stations such as the ISS; scientific satellites like the Hubble; Earth observation satellites from companies like Planet Labs, Umbra, and HawkEye 360; GPS; miniature CubeSats for education and research; and military/defense satellites.

Loading next visibility...
Identifier
68493, 2026-067CF
Orbit
SSO
Country
Flag of LULU / LUXE
Related business
None
Manufacturer
Unknown
Mission
Operational spacecraft
Bus & Motor
Unknown
Mass
Unknown
Launch date (UTC)
2026-03-30 (1 month ago)
Launch vehicle
FALCON 9
Launch site
Air Force Western Test Range (AFWTR)
Object type
Payload
Rocket body
Debris
Shape & HBR
Unknown shape, 1.1 m
Radar Cross Section
RCS unknown

Expand to show TLE details & history
Last TLE update: 11 hours ago

TLE from 11 hours ago
0 LEMUR-2 POLO-11
1 68493U 26067CF  26127.14588230  .00003718  00000-0  37890-3 0  9999
2 68493  97.7629  86.0320 0004682 141.1343 219.0213 14.91279437  5604
Epoch: 2026-05-07T03:30Z
TLE epoch observation values (Epoch: 2026-05-07T03:30:04.230Z)
Latitude
-0.00003°
Longitude
168.51816°
Altitude
599.523 km
Speed
7.559 km/s
True Right ascension
05h 44m 07s
True Declination
0° 00' 00"
Sunlit
Object was in daylight at epoch
Visualization orbit readout
Latitude
Unknown
Longitude
Unknown
Altitude
Unknown
Speed
Unknown
Apparent Right ascension
Unknown
Apparent Declination
Unknown
Sunlit
N/A
Visualization observer readout
Local Sidereal Time
22:05:28
Azimuth
Unknown
Elevation
Unknown
Doppler factor
Unknown
Orbital elements
Apogee altitude
594.228 km
Perigee altitude
587.702 km
Semi-major axis
6,969.102 km
Eccentricity
0.00047
Inclination
97.7629°
RAAN
86.032°
Arg. of periapsis
141.1343°
True anomaly
218.98754°
Mean anomaly
219.0213°
Eccentric anomaly
219.00442°
Mean motion
3.73059 °/min
Orbital period
96.5 mins
BSTAR
0.0003789
Loading maneuver chart data...
Computing Atmospheric mass density...
Loading historical data...
Loading historical data...
Loading historical data...
Loading historical data...
Loading historical data...
Loading historical data...
Loading historical data...

Documentation

Showing up to 5 results
|